Location: Flynn Junction
(40.1314°N, 99.5162°W)
Time: 21:53:27
(UTC+00:00)

SKYMED 2 - Pass Details

Date: 29 October 2020
Orbit: 621 x 623 km, 97.9° (Epoch: 01 December)

Event Time Altitude Azimuth Distance (km) Brightness Sun altitude
Rises 12:31:59 0° 190° (S) 2,890 7.0 -6.9°
Reaches altitude 10° 12:34:22 10° 201° (SSW) 1,989 6.1 -6.4°
Maximum altitude 12:38:12 31° 263° (W) 1,105 4.4 -5.7°
Drops below altitude 10° 12:42:05 10° 326° (NW) 2,002 5.7 -5.0°
Sets 12:44:30 0° 337° (NNW) 2,913 6.6 -4.5°
